Flag for U.S.A. Weather past 2 weeks in San Francisco, California, U.S.A.

63 °F


Feels Like: 63 °F
Forecast: 58 / 69 °F
Wind: 10 mph from Northwest

Location: San Francisco International Airport

Current Time: Oct 4, 2015 at 9:50:29 PM

Latest Report: Oct 4, 2015 at 8:56 PM

Visibility: 10 mi

Pressure: 29.67 "Hg

Humidity: 63%

Dew point: 50 °F

Location of San FranciscoLocation

Historic Weather in San Francisco — Graph


San Francisco temperature yesterday

Maximum temperature yesterday: 70 °F (at 12:56 PM)
Minimum temperature yesterday: 56 °F (at 4:56 AM)
Average temperature yesterday: 60 °F

Past Weeks' High & Low Weather Summary

High89 °F (Sep 20, 3:56 PM)93% (Sep 28, 1:56 AM)30.06 "Hg (Sep 28, 1:56 AM)
Low54 °F (Oct 4, 4:56 AM)27% (Sep 20, 4:56 PM)29.45 "Hg (Oct 3, 9:56 PM)
Average64 °F69%29.87 "Hg
* Reported Sep 19 7:56 PM — Oct 4 7:56 PM, San Francisco, Weather by CustomWeather, © 2015

Note: Actual official high and low records may vary slightly from our data, if they occured in-between our weather recording intervals... More about our weather records


San Francisco weather history for previous 24 hours

Time TempWeatherWind HumidityBarometerVisibility
7:56 PM
Sun, Oct 4
63 °FPassing clouds.13 mph65%29.66 "Hg10 mi
6:56 PM65 °FPassing clouds.12 mph59%29.65 "Hg10 mi
5:56 PM69 °FPassing clouds.12 mph45%29.63 "Hg10 mi
4:56 PM71 °FPassing clouds.13 mph42%29.62 "Hg10 mi
3:56 PM72 °FPassing clouds.15 mph44%29.62 "Hg10 mi
2:56 PM72 °FPassing clouds.16 mph48%29.60 "Hg10 mi
1:56 PM71 °FPassing clouds.17 mph51%29.60 "Hg10 mi
12:56 PM72 °FPassing clouds.No wind44%29.60 "Hg10 mi
11:56 AM69 °FPassing clouds.5 mph61%29.62 "Hg10 mi
10:56 AM66 °FPassing clouds.3 mph63%29.62 "Hg10 mi
9:56 AM62 °FPassing clouds.3 mph67%29.62 "Hg10 mi
8:56 AM58 °FPassing clouds.8 mph72%29.60 "Hg10 mi
7:56 AM55 °FPassing clouds.5 mph77%29.59 "Hg10 mi
6:56 AM55 °FPassing clouds.5 mph77%29.57 "Hg10 mi
5:56 AM55 °FClear.No wind77%29.54 "Hg10 mi
4:56 AM54 °FPassing clouds.5 mph80%29.52 "Hg10 mi
3:56 AM55 °FPassing clouds.5 mph80%29.49 "Hg10 mi
2:56 AM57 °FPassing clouds.No wind69%29.49 "Hg10 mi
1:56 AM56 °FPassing clouds.No wind77%29.48 "Hg10 mi
12:56 AM55 °FPassing clouds.5 mph80%29.47 "Hg10 mi
11:56 PM
Sat, Oct 3
58 °FPassing clouds.6 mph75%29.48 "Hg10 mi
10:56 PM58 °FPassing clouds.3 mph75%29.46 "Hg10 mi
9:56 PM58 °FOvercast.7 mph75%29.45 "Hg10 mi
Weather by CustomWeather, © 2015

See weather overviewHow to use our weather pages